Location: Beuvrequen
(50.8014°N, 1.6652°E)
Time: 20:35:32
(UTC+00:00)

IRS-1A Rocket - Pass Details

Date: 16 October 2021
Orbit: 851 x 932 km, 99.1° (Epoch: 05 December)

Event Time Altitude Azimuth Distance (km) Brightness Sun altitude
Exits shadow 20:05:00 80° 353° (N) 947 4.3 -29.7°
Drops below altitude 10° 20:10:33 10° 345° (NNW) 2,625 7.2 -30.5°
Sets 20:12:58 0° 345° (NNW) 3,562 8.0 -30.8°
